Regional Weather Roundup
Issued by NWS

Home | Current Version | Previous Version | Text Only | Print | Product List | Glossary Off
Versions: 1 2 3 4 5 6 7 8 9 10 11 12 13 14 15 16 17 18 19 20 21 22 23 24 25 26 27 28 29 30 31 32 33 34 35 36 37 38 39 40 41 42 43 44 45 46 47 48 49 50

000
ASUS43 KLOT 282300
RWRIL

ILLINOIS REGIONAL WEATHER ROUNDUP
NATIONAL WEATHER SERVICE CHICAGO/ROMEOVILLE IL
600 PM CDT TUE JUL 28 2015

NOTE: "FAIR" INDICATES FEW OR NO CLOUDS BELOW 12,000 FEET WITH NO
SIGNIFICANT WEATHER AND/OR OBSTRUCTIONS TO VISIBILITY.

* THESE STATIONS ARE NOT UNDER NWS QUALITY CONTROL. THEY ALSO MAY NOT
  REPORT WEATHER SUCH AS PRECIPITATION OR FOG.

ILZ001-002-007-009-015-016-024-290000-
NORTHWEST ILLINOIS

CITY           SKY/WX    TMP DP  RH WIND       PRES   REMARKS
MOLINE         CLOUDY    85  77  77 MISG      29.89R HX  95
STERLING*      CLOUDY    84  75  74 S3        29.91R HX  92
$$

ILZ003-004-008-010-011-017-018-290000-
NORTH CENTRAL ILLINOIS

CITY           SKY/WX    TMP DP  RH WIND       PRES   REMARKS
ROCKFORD       CLOUDY    85  74  69 SW9       29.93R HX  92
$$

ILZ005-006-012>014-019>023-290000-
NORTHEAST ILLINOIS

CITY           SKY/WX    TMP DP  RH WIND       PRES   REMARKS
CHICAGO-OHARE  PTSUNNY   88  69  53 S8        29.89R HX  92
CHICAGO-MIDWAY PTSUNNY   91  68  46 S12       29.89R HX  95
AURORA         PTSUNNY   86  73  65 SW5       29.92R HX  93
LANSING*       MOSUNNY   88  67  49 SW8       29.91R HX  91
WAUKEGAN       CLOUDY    80  69  69 SE9       29.91S HX  83
DUPAGE AIRPORT PTSUNNY   86  71  60 SW9       29.91R HX  91
WHEELING       PTSUNNY   86  69  56 SE7       29.91R HX  90
NORTHERLY ISL    N/A     80  70  71 S1          N/A  HX  83
$$

LMZ740>746-290000-
SOUTHERN LAKE MICHIGAN

STATION/POSITION SKY/WX   TEMP    WIND        PRES    VSBY  WAVE
                          AIR SEA DIR/SP/G                  HT/PER
                          (F)     (DEG/KT/KT) (MB)    (MI)  (FT/S)
HARRISON CRIB              78     100/ 19/ 21   N/A
BURNHAM HARBOR             81     100/ 11/ 15   N/A
CALUMET HARBOR             81      90/ 11/ 17   N/A
BURNS HARBOR               88     110/ 16/ 20 1011.9
MICHIGAN CITY              86      90/ 13/ 17   N/A
MICHIGAN CITY 6N           80 78  100/ 10/ 14   N/A           1
ST. JOSEPH                 79 80  110/  6/  8   N/A           0
$$

ILZ025>027-034>036-040-047-049-050-058-095>099-290000-
WEST-CENTRAL ILLINOIS

CITY           SKY/WX    TMP DP  RH WIND       PRES   REMARKS
QUINCY         SUNNY     92  78  63 S7        29.89F HX 107
MACOMB*        MOSUNNY   91  78  67 S10       29.90S HX 106
$$

ILZ028>032-037-038-041>044-048-051>054-059>061-290000-
CENTRAL ILLINOIS

CITY           SKY/WX    TMP DP  RH WIND       PRES   REMARKS
DECATUR        CLOUDY    77  72  84 S5        29.93F
PEORIA         PTSUNNY   85  74  69 S7        29.90F HX  92
SPRINGFIELD    MOSUNNY   88  77  69 E12       29.90F HX 100
TAYLORVILLE    NOT AVBL
$$

ILZ033-039-045-046-055>057-062-063-290000-
EAST-CENTRAL ILLINOIS

CITY           SKY/WX    TMP DP  RH WIND       PRES   REMARKS
CHAMPAIGN      CLOUDY    77  74  90 SW3       29.92F
MATTOON        CLOUDY    76  71  85 CALM      29.92F
$$

ILZ079-100>102-290000-
SOUTHWEST ILLINOIS

CITY           SKY/WX    TMP DP  RH WIND       PRES   REMARKS
BELLEVILLE     PTSUNNY   79  77  94 CALM      29.89F HX  84
CAHOKIA*       PTSUNNY   84  74  71 S6        29.89F HX  91
SPARTA*        CLOUDY    92  79  66 SW6       29.92F HX 108
$$

ILZ064>066-069>071-074>076-080>082-084>086-088>090-092>094-290000-
SOUTH-CENTRAL ILLINOIS

CITY           SKY/WX    TMP DP  RH WIND       PRES   REMARKS
CARBONDALE     MOSUNNY   92  78  63 SW10      29.90F HX 107
MARION         PTSUNNY   91  81  70 W7        29.92F HX 110
MT. VERNON     PTSUNNY   84  73  70 SE6       29.93S HX  91
SALEM*         MOSUNNY   92  79  64 CALM      29.92F HX 108
$$

ILZ067-068-072-073-078-083-087-091-290000-
SOUTHEAST ILLINOIS

CITY           SKY/WX    TMP DP  RH WIND       PRES   REMARKS
LAWRENCEVILLE  SUNNY     92  77  61 CALM      29.91F HX 105
FLORA*         SUNNY     92  75  59 NE5       29.93R HX 103
HARRISBURG*    TSTM      78  73  85 NE9G21    29.94R
ROBINSON*      SUNNY     89  76  65 W3        29.90F HX 100
CARMI*         PTSUNNY   79  70  73 S18       29.94R THUNDER HX  82
$$

ABBREVIATIONS USED IN REMARKS
   TC - TEMPERATURE IN CELSIUS
  WCI - WIND CHILL INDEX
   HX - HEAT INDEX
  VSB - VISIBILITY
$$




USA.gov is the U.S. government's official web portal to all federal, state and local government web resources and services.